FENGYUN 1C DEB

Satellite information

Favourite Embed

Satellite Type and Status

DEBRISIN ORBIT

Key statistics

Satellite FENGYUN 1C DEB at a glance.

Uptime

9715

Days in orbit

Revolutions

≈ 13.5

Per day

Orbit

SSO

Sun Synchronous Orbit

Inclination

99.4

Latest

Satellite identification and parameters

Extended collection of information and parameters for FENGYUN 1C DEB.

Object identification

Identified? True

Debris? True

Object name: FENGYUN 1C DEB

International designator: 1999-025CVF

Object number (NORAD): 32209

Object ID (CCSDS): 32209

Country: PEOPLES REPUBLIC OF CHINA (PRC)

Current information (Y/N): Y

RCS size: SMALL

Orbital parameters

Period: 106.891 minutes

Inclination: 99.4206 deg

SMA: 7460.859 km

Apoapsis: 1331.263 km

Periapsis: 834.185 km

RAAN: 292.6227 deg

Eccentricy: 0.03331235

Argument of periapsis: 29.3187 deg

Mean anomaly: 332.6194 deg

Mean motion: 13.4716101 rev/day

Mean motion (dot): 0.00003226 rev/day2

B* drag term: 0.0038267004 1/REarth

Two-line elements (TLE)

Creation date: Dec. 11, 2025, 10:54 a.m.

Reference frame: TEME

Reference center: EARTH

Epoch: Dec. 11, 2025, 2:40 a.m. UTC

TLE line 0: 0 FENGYUN 1C DEB

TLE line 1: 1 32209U 99025CVF 25345.11144461 .00003226 00000-0 38267-2 0 9993

TLE line 2: 2 32209 99.4206 292.6227 0333124 29.3187 332.6194 13.47161010899541

Live tracking on map

Real-time ground track for satellite FENGYUN 1C DEB.

In-orbit conjunctions

A list of the most updated potential collisions computed for object FENGYUN 1C DEB.

Target Orbit TCA Probability of collision Miss distance Type
COSMOS 2353 LEO 2025-04-04 07:47:48 0.000140987 334.0 (m) PAYLOAD
CZ-6A DEB SSO 2024-11-13 14:09:29 0.0002440586 893.0 (m) DEBRIS

Associated space launch

Chinese polar orbiting meteorological satellite

FENGYUN 1C DEB was lifted into orbit during the mission ‘Long March 4B | Feng Yun 1C’, on board a Long March 4B space rocket.

The launch took place on May 10, 1999, 1:33 a.m. from Launch Complex 7.

For more information about the launch, click the button.

Launch to space Long March 4B | Feng Yun 1C
Long March 4B | Feng Yun 1C

Agency: N/A

Status: Launch Successful

Launch date: May 10, 1999, 1:33 a.m. UTC

Rocket: Long March 4B

Launch pad: Launch Complex 7

Location: Taiyuan Satellite Launch Center, People's Republic of China

...

Latest news about this satellite

There are no fresh news available about this satellite. Check back as we update our databases every day.


Newsletter sign-up

Weekly statistics, charts and insights to help you stay on top of the space industry.